Regional Weather Roundup
Issued by NWS Bismarck, ND

Home | Current Version | Previous Version | Text Only | Print | Product List | Glossary On
Versions: 1 2 3 4 5 6 7 8 9 10 11 12 13 14 15 16 17 18 19 20 21 22 23 24 25 26 27 28 29 30 31 32 33 34 35 36 37 38 39 40 41 42 43 44 45 46 47 48 49 50
000
ASUS43 KBIS 301410
RWRBIS

NWR BROADCAST TEXT
NATIONAL WEATHER SERVICE BISMARCK ND
900 AM CDT MON MAR 30 2015

NOTE: "FAIR" INDICATES FEW OR NO CLOUDS BELOW 12,000 FEET WITH NO
SIGNIFICANT WEATHER AND/OR OBSTRUCTIONS TO VISIBILITY.


CITY           SKY/WX    TMP DP  RH WIND       PRES   REMARKS
WILLISTON      MOSUNNY   45  34  65 W9        29.88R
MINOT          MOSUNNY   46  32  58 W14       29.78R
MINOT AFB      PTSUNNY   44  38  79 NW13      29.77R
BISMARCK       SUNNY     43  32  65 W6        29.85S
DICKINSON      MOSUNNY   48  32  53 W20       29.88R
GARRISON         N/A     45  35  68 W15       29.81S
HETTINGER ARPT PTSUNNY   46  31  55 W17       29.95R
JAMESTOWN      CLOUDY    40  32  73 S5        29.79F
BEACH          FAIR      45  32  61 W15       29.95S
CARRINGTON     PTSUNNY   41  34  75 W3        29.80S
CROSBY         FAIR      41  37  87 NW9       29.87R
HARVEY         FAIR      41  32  70 SW5       29.78S
HAZEN          FAIR      41  32  70 SW10      29.85S
LINTON         FAIR      43  34  70 W7        29.86S
MANDAN         FAIR      46  32  57 W18G25    29.85R
OAKES            N/A     37  32  81 S12       29.83F
WATFORD CITY   FAIR      46  34  61 W13       29.88R
$$

CITY           SKY/WX    TMP DP  RH WIND       PRES   REMARKS
GRAND FORKS    CLOUDY    37  33  85 SW5       29.87R
GRAND FORKS AF MIX PCPN  37  32  81 E3        29.86R
DEVILS LAKE    PTSUNNY   39  34  81 E9        29.77F
FARGO          CLOUDY    40  32  73 E8        29.85F
CAVALIER       FAIR      39  30  70 S5        29.85F
GWINNER        PTSUNNY   39  32  75 SW12        N/A
ROLLA          PTSUNNY   36  36 100 SE8       29.79F
WALHALLA         N/A     39  36  87 CALM      29.84F
$$

CITY           SKY/WX    TMP DP  RH WIND       PRES   REMARKS
ABERDEEN       PTSUNNY   39  28  64 S7        29.88F
MOBRIDGE       PTSUNNY   44  33  65 CALM      29.87R
BUFFALO          N/A     43  31  62 W10       29.93R
RAPID CITY     PTSUNNY   51  25  36 NW10      30.02R
GLASGOW        SUNNY     42  32  67 W9        29.97R
SIDNEY         MOSUNNY   48  34  57 W15       29.92R
WOLF POINT     SUNNY     45  35  68 W9        29.95R
GLENDIVE         N/A     46  32  57 W9        29.98R
MILES CITY     MOSUNNY   44  31  60 NW6       30.03R
BAKER          PTSUNNY   47  32  56 W15       29.99R
$$

CITY           SKY/WX    TMP DP  RH WIND       PRES   REMARKS
BILLINGS       MOCLDY    52  27  38 W9        30.10R
GREAT FALLS    CLOUDY    46  31  55 SW12      30.06R
ESTEVAN        MOSUNNY   39  34  81 NW8       29.85R
$$



USA.gov is the U.S. government's official web portal to all federal, state and local government web resources and services.